Total_Precipitation_Accumulation
1.70 2.18 2.71 3.21 3.87 4.79 5.76 6.20 6.09 5.51 5.01 4.58 4.17 3.93 3.63 3.36 3.22 2.90 2.53 2.48 2.46 2.49 2.76 2.48 2.71 2.69 2.77 2.78 2.68 2.79 2.76 2.51 2.66 3.09 3.03 2.69 2.45 2.47 2.39 2.29 2.37 2.15 2.16
1.76 2.28 2.88 3.27 3.60 4.14 4.91 5.30 5.04 4.44 3.80 3.53 3.46 3.39 3.34 2.98 2.75 2.65 2.58 2.30 2.32 2.39 2.46 2.58 2.39 2.41 2.56 2.49 2.46 2.73 2.68 2.37 2.46 2.91 3.13 2.98 3.00 2.74 2.13 2.12 2.26 2.22 2.28
1.55 2.29 2.84 3.13 3.40 3.61 3.60 3.76 3.72 3.29 2.96 2.86 2.85 2.88 3.04 2.82 2.53 2.45 2.38 2.14 2.06 2.03 2.17 2.25 2.36 2.46 2.34 2.39 2.43 2.46 2.56 2.50 2.34 2.42 2.97 2.92 2.81 2.67 2.39 2.07 2.03 2.20 2.43
1.40 2.15 2.45 2.57 2.63 2.71 2.51 2.53 2.67 2.59 2.56 2.46 2.47 2.39 2.27 2.26 2.17 2.15 2.11 2.06 1.93 1.85 1.77 1.89 2.10 2.28 2.25 2.47 2.20 2.24 2.46 2.54 2.29 2.30 2.40 2.43 2.52 2.64 2.46 2.11 1.92 1.98 2.09
1.10 1.44 1.51 1.67 1.76 1.81 1.83 2.03 2.34 2.46 2.38 2.31 2.41 2.42 2.14 2.02 1.94 1.98 2.10 2.04 1.92 1.78 1.63 1.72 1.94 2.10 2.17 2.29 2.30 2.54 2.44 2.33 2.28 2.24 2.33 2.41 2.43 2.30 2.34 2.26 2.02 1.92 1.78
0.80 0.99 1.05 1.13 1.21 1.25 1.37 1.61 2.08 2.30 2.20 2.14 2.17 2.14 2.09 2.07 1.98 1.92 1.97 1.94 1.86 1.86 1.84 1.79 1.91 1.93 1.97 2.06 2.17 2.38 2.38 2.32 2.33 2.19 2.11 2.31 2.41 2.40 2.46 2.27 2.03 1.89 1.68
0.72 0.83 1.00 1.06 0.98 0.94 1.08 1.30 1.64 1.80 1.78 1.85 1.96 2.02 2.10 2.07 1.92 1.86 1.80 1.77 1.63 1.71 1.89 1.90 1.93 1.97 2.02 1.99 2.09 2.16 2.15 2.19 2.31 2.22 2.09 2.07 2.07 2.23 2.38 2.37 2.04 1.89 1.72
0.62 0.65 0.75 0.75 0.73 0.81 0.90 1.07 1.25 1.34 1.44 1.56 1.75 1.90 1.93 1.90 1.85 1.97 1.84 1.70 1.52 1.48 1.66 1.84 1.88 1.86 1.82 1.85 2.24 2.04 1.98 2.12 2.21 2.15 2.41 2.26 2.04 2.22 2.35 2.42 2.47 2.28 2.15
0.46 0.46 0.52 0.56 0.62 0.79 0.90 0.97 1.06 1.17 1.29 1.40 1.65 1.79 1.79 1.73 1.76 1.85 1.77 1.61 1.61 1.53 1.60 1.61 1.80 1.88 1.81 1.85 2.08 2.06 2.01 2.12 2.11 2.25 2.50 2.46 2.33 2.33 2.33 2.49 2.74 2.91 2.72
0.41 0.45 0.49 0.56 0.58 0.62 0.80 0.91 0.97 1.12 1.28 1.37 1.43 1.46 1.58 1.56 1.55 1.50 1.49 1.56 1.60 1.58 1.64 1.69 1.67 1.72 1.82 1.93 2.05 1.95 1.88 2.01 2.12 2.28 2.44 2.47 2.41 2.42 2.32 2.41 2.64 2.88 2.94
0.50 0.48 0.56 0.58 0.58 0.59 0.74 0.86 0.92 1.02 1.12 1.14 1.17 1.27 1.35 1.35 1.32 1.32 1.30 1.41 1.47 1.52 1.53 1.57 1.63 1.62 1.71 1.96 2.24 2.13 2.08 2.11 2.16 2.21 2.38 2.49 2.67 2.67 2.54 2.52 2.51 2.66 2.83
0.63 0.62 0.67 0.63 0.66 0.69 0.73 0.82 0.80 0.83 0.90 0.97 1.02 1.09 1.20 1.21 1.20 1.24 1.39 1.47 1.46 1.41 1.32 1.39 1.45 1.41 1.53 1.79 2.09 2.24 2.31 2.38 2.35 2.41 2.60 2.65 2.68 2.63 2.53 2.55 2.54 2.54 2.76
0.66 0.82 0.84 0.70 0.70 0.72 0.73 0.76 0.73 0.77 0.82 0.87 0.90 0.95 1.10 1.26 1.33 1.38 1.45 1.54 1.55 1.49 1.48 1.50 1.46 1.59 1.68 1.71 1.88 2.07 2.18 2.26 2.28 2.43 2.49 2.49 2.61 2.53 2.50 2.36 2.35 2.40 2.58
0.68 0.85 0.94 0.75 0.66 0.66 0.67 0.69 0.69 0.65 0.64 0.75 0.89 0.98 1.18 1.40 1.50 1.52 1.54 1.55 1.56 1.54 1.59 1.59 1.61 1.72 1.75 1.71 1.80 1.96 2.09 2.16 2.19 2.29 2.39 2.46 2.47 2.52 2.62 2.48 2.49 2.65 2.77
0.71 0.71 0.76 0.69 0.66 0.66 0.66 0.67 0.69 0.69 0.71 0.88 1.01 1.16 1.38 1.47 1.52 1.60 1.62 1.67 1.70 1.61 1.70 1.75 1.72 1.71 1.63 1.56 1.80 1.95 1.97 2.14 2.19 2.18 2.16 2.25 2.45 2.52 2.55 2.36 2.49 2.70 2.72
0.77 0.86 0.86 0.82 0.86 0.81 0.78 0.79 0.81 0.88 1.01 1.16 1.29 1.37 1.46 1.54 1.50 1.50 1.53 1.67 1.74 1.81 1.92 1.95 1.93 1.83 1.60 1.79 1.88 1.91 1.98 2.09 2.12 2.13 2.04 1.96 1.99 2.07 2.20 2.21 2.23 2.36 2.49
0.93 1.03 1.09 1.05 1.06 1.00 0.99 1.09 1.08 1.16 1.32 1.48 1.65 1.66 1.64 1.68 1.67 1.70 1.72 1.74 1.87 1.98 2.00 1.98 1.98 1.94 1.96 1.98 1.77 1.71 1.65 1.70 1.75 1.76 1.74 1.53 1.45 1.76 1.85 2.03 2.02 1.91 1.95
0.95 1.07 1.15 1.13 1.07 1.08 1.14 1.37 1.49 1.49 1.61 1.72 1.83 1.92 1.94 2.01 2.07 2.15 2.13 2.17 2.22 2.27 2.20 2.11 2.12 2.17 2.16 2.17 1.86 1.75 1.62 1.59 1.57 1.56 1.53 1.53 1.54 1.61 1.77 1.84 1.81 1.73 1.70
1.06 1.20 1.20 1.17 1.17 1.34 1.41 1.48 1.59 1.61 1.79 1.98 2.12 2.19 2.24 2.25 2.27 2.29 2.40 2.53 2.67 2.71 2.60 2.54 2.56 2.57 2.64 2.65 2.28 2.12 1.86 1.77 1.67 1.68 1.74 1.76 1.61 1.67 1.68 1.70 1.66 1.63 1.65
1.20 1.33 1.35 1.32 1.40 1.66 1.72 1.80 1.88 1.94 2.02 2.13 2.30 2.49 2.58 2.60 2.57 2.63 2.78 2.94 3.11 3.13 3.12 3.11 3.11 3.02 2.99 2.97 2.58 2.42 2.16 2.09 2.02 2.02 1.90 1.80 1.61 1.54 1.48 1.47 1.54 1.47 1.47
1.17 1.32 1.37 1.38 1.47 1.67 1.87 2.14 2.29 2.33 2.33 2.38 2.50 2.63 2.73 2.86 2.90 2.99 3.08 3.25 3.36 3.32 3.26 3.20 3.16 3.07 3.02 2.92 2.60 2.43 2.23 2.24 2.24 2.12 1.99 1.86 1.71 1.51 1.46 1.40 1.38 1.40 1.50
1.21 1.28 1.41 1.49 1.60 1.74 1.99 2.20 2.38 2.54 2.64 2.63 2.75 2.80 2.80 2.72 2.71 2.94 3.14 3.33 3.52 3.48 3.40 3.43 3.31 3.17 3.06 2.80 2.56 2.37 2.23 2.29 2.31 2.23 2.10 1.99 1.84 1.60 1.53 1.40 1.37 1.41 1.38
1.18 1.21 1.29 1.42 1.53 1.63 1.83 2.22 2.35 2.41 2.48 2.58 2.63 2.74 2.79 2.83 2.88 3.07 3.23 3.43 3.53 3.48 3.35 3.34 3.28 3.10 2.91 2.78 2.53 2.28 2.18 2.20 2.14 2.20 2.26 2.09 1.92 1.73 1.58 1.54 1.52 1.43 1.34
1.13 1.19 1.27 1.38 1.46 1.44 1.59 1.81 2.04 2.17 2.20 2.22 2.25 2.26 2.38 2.55 2.77 3.07 3.17 3.23 3.29 3.31 3.28 3.17 3.03 2.99 2.98 2.92 2.65 2.32 2.07 2.04 2.07 2.11 2.17 2.03 1.88 1.68 1.55 1.56 1.47 1.32 1.29
1.11 1.17 1.35 1.36 1.39 1.46 1.49 1.54 1.60 1.81 1.96 1.96 1.98 2.08 2.18 2.36 2.56 2.78 2.94 2.90 2.93 3.12 3.02 2.81 2.64 2.52 2.43 2.52 2.45 2.17 2.04 2.00 2.09 2.13 2.17 2.09 1.97 1.84 1.69 1.61 1.61 1.59 1.52
1.14 1.20 1.30 1.30 1.29 1.38 1.45 1.48 1.58 1.74 1.81 1.76 1.77 1.81 1.85 2.00 2.18 2.34 2.46 2.48 2.27 2.34 2.24 2.07 1.93 1.81 1.78 1.82 1.73 1.59 1.54 1.62 1.79 1.87 2.03 2.06 1.96 1.87 1.82 1.79 1.75 1.71 1.62